User: anonymous   Login
Location: Bijele Vode
(45.2833°N, 16.2000°E)
Time: 17:54:06
(UTC+00:00)
Language:

Cosmos 1844 Rocket - Orbit

View from above orbital plane
View from above orbital plane
View from above satellite
View from above satellite

Ground track
Ground track

The orbit data is extracted from the following two-line orbital elements,

1 17974U 87041B   21169.20143347  .00000021  00000-0  34106-4 0  9992
2 17974  71.0072  69.4295 0015394 314.5510 159.2568 14.17273760763597
Epoch (UTC): 18 June 2021 04:50:03
Eccentricity: 0.0015394
inclination: 71.0072°
perigee height: 823 km
apogee height: 845 km
right ascension of ascending node: 69.4295°
argument of perigee: 314.5510°
revolutions per day: 14.17273760
mean anomaly at epoch: 159.2568°
orbit number at epoch: 76359

The dashed part of the orbit path shows where the satellite is in the earth's shadow,  

DLR